This is the latest recevied weather packets stored in our database for station/object GW4003. If no packets are shown the sender has not sent any weather packets the latest 10 day(s).
| Time | Temp. | Humidity | Pressure | Rain* | Wind** | Luminosity | Snow |
|---|---|---|---|---|---|---|---|
| 1788060078 | 22.78° C | 49% | 1020.7 hPa | 0 mm | - | - | - |
| 1788059775 | 22.78° C | 49% | 1020.8 hPa | 0 mm | - | - | - |
| 1788059472 | 22.78° C | 49% | 1020.7 hPa | 0 mm | - | - | - |
| 1788059168 | 22.78° C | 48% | 1020.7 hPa | 0 mm | - | - | - |
| 1788058863 | 23.33° C | 47% | 1020.7 hPa | 0 mm | - | - | - |
| 1788058560 | 23.33° C | 47% | 1020.8 hPa | 0 mm | - | - | - |
| 1788058256 | 23.33° C | 47% | 1021 hPa | 0 mm | - | - | - |
| 1788057953 | 23.33° C | 46% | 1021 hPa | 0 mm | - | - | - |
| 1788057649 | 23.33° C | 46% | 1020.9 hPa | 0 mm | - | - | - |
| 1788057345 | 23.89° C | 46% | 1020.8 hPa | 0 mm | - | - | - |
| 1788057041 | 23.89° C | 45% | 1020.6 hPa | 0 mm | - | - | - |
| 1788056737 | 24.44° C | 44% | 1020.6 hPa | 0 mm | - | - | - |
| 1788056433 | 24.44° C | 44% | 1020.5 hPa | 0 mm | - | - | - |
| 1788056130 | 25° C | 42% | 1020.5 hPa | 0 mm | - | - | - |
| 1788055825 | 25.56° C | 41% | 1020.4 hPa | 0 mm | - | - | - |
| 1788055522 | 26.67° C | 40% | 1020.1 hPa | 0 mm | - | - | - |
| 1788055218 | 27.22° C | 37% | 1020.1 hPa | 0 mm | - | - | - |
| 1788054914 | 27.78° C | 35% | 1019.9 hPa | 0 mm | - | - | - |
| 1788054611 | 27.78° C | 35% | 1019.3 hPa | 0 mm | - | - | - |
| 1788054307 | 27.78° C | 34% | 1019.2 hPa | 0 mm | - | - | - |
| 1788054004 | 27.78° C | 34% | 1018.7 hPa | 0 mm | - | - | - |
| 1788053700 | 27.78° C | 33% | 1018.5 hPa | 0 mm | - | - | - |
| 1788053405 | 27.78° C | 33% | 1018.4 hPa | 0 mm | - | - | - |
| 1788053092 | 27.78° C | 33% | 1018.4 hPa | 0 mm | - | - | - |
| 1788052788 | 27.78° C | 33% | 1018.4 hPa | 0 mm | - | - | - |
* Rain latest hour (hover to see other rain measurements)
** Current wind speed in m/s (hover to see current wind gust speed)